Location: Cork
(51.8990°N, 8.4960°W)
Time: 04:27:34
(UTC+01:00)

Iridium 66 - Visible Passes

Search period start: 28 July 2015 00:00
Search period end: 07 August 2015 00:00
Orbit: 776 x 779 km, 86.4° (Epoch: 27 July)

Date Brightness Start Highest point End Pass type
(mag) Time Alt. Az. Time Alt. Az. Time Alt. Az.
28 Jul 7.4 01:58:07 10° NNE 02:02:44 31° ENE 02:06:20 15° SE visible
28 Jul 6.6 03:38:43 10° NNW 03:43:40 43° W 03:46:47 21° SW visible
29 Jul 8.0 01:25:05 10° NNE 01:28:50 20° ENE 01:32:40 10° ESE visible
29 Jul 6.0 03:04:59 10° N 03:10:13 72° W 03:13:08 27° S visible
29 Jul 8.1 04:47:58 10° NW 04:50:06 12° WNW 04:52:01 10° W visible
30 Jul 8.4 00:52:43 10° NE 00:54:46 12° ENE 00:57:04 10° E visible
30 Jul 6.2 02:31:26 10° N 02:36:41 69° E 02:39:29 28° SSE visible
30 Jul 7.6 04:13:08 10° NNW 04:16:56 20° WNW 04:19:56 12° WSW visible
31 Jul 6.9 01:58:02 10° N 02:03:00 42° ENE 02:05:50 23° SE visible
31 Jul 7.0 03:39:02 10° NNW 03:43:40 32° W 03:46:17 20° SW visible
01 Aug 7.6 01:24:51 10° NNE 01:29:11 26° ENE 01:32:12 16° ESE visible
01 Aug 6.3 03:05:12 10° NNW 03:10:17 53° W 03:12:40 29° SSW visible
02 Aug 8.2 00:52:00 10° NNE 00:55:13 17° ENE 00:58:36 10° ESE visible
02 Aug 6.0 02:31:33 10° N 02:36:49 87° W 02:39:02 36° S visible
02 Aug 8.0 04:13:52 10° NW 04:16:50 15° WNW 04:19:30 10° WSW visible
03 Aug 8.6 00:20:42 10° NE 00:21:06 10° ENE 00:21:47 10° ENE visible
03 Aug 6.4 01:58:03 10° N 02:03:13 57° E 02:05:25 33° SE visible
03 Aug 7.4 03:39:26 10° NNW 03:43:38 24° W 03:45:53 18° WSW visible
04 Aug 7.2 01:24:44 10° N 01:29:29 35° ENE 01:31:49 24° ESE visible
04 Aug 6.8 03:05:28 10° NNW 03:10:19 39° W 03:12:16 28° SW visible
05 Aug 7.8 00:51:38 10° NNE 00:55:36 22° ENE 00:58:14 16° ESE visible
05 Aug 6.1 02:31:42 10° N 02:36:55 65° W 02:38:40 40° SSW visible
05 Aug 8.2 04:15:14 10° NW 04:16:42 11° WNW 04:17:54 10° W visible
06 Aug 8.3 00:19:02 10° NNE 00:21:35 14° ENE 00:24:20 10° E visible
06 Aug 6.0 01:58:07 10° N 02:03:23 77° E 02:05:06 43° SSE visible
06 Aug 7.8 03:39:59 10° NNW 03:43:33 18° WNW 03:45:33 15° WSW visible
